{"data":{"norad_id":55451,"epoch":"2026-09-20T13:54:02.947392Z","epoch_age_seconds":93513,"freshness":"FRESH","line1":"1 55451U 23015C   26263.57920078 -.00000128  00000+0  48803-5 0  9997","line2":"2 55451  43.0049 308.4531 0001497 300.9445  59.1259 15.27576768200526","mean_motion":15.27576768,"eccentricity":0.0001497,"inclination_deg":43.0049,"raan_deg":308.4531,"arg_perigee_deg":300.9445,"mean_anomaly_deg":59.1259,"bstar":4.8803e-6,"rev_number":20052,"period_min":94.266948160343,"perigee_km":482.03165282008,"apogee_km":484.08589483476,"semimajor_km":6861.1957738274,"source":"CELESTRAK","updated_at":"2026-09-21T09:00:33.225595Z"}}